• In Belgien
  • Länderverzeichnis
  • Für 7 Tage
  • Wassertemperatur
  • Satellitenkarten
  • Wetterkarte
  • Widgets
  • user-avatar
    Anmelden

    Stündliche Wetter Gent

    Heute, 19 Februar, Montag

    Zeit Temperatur Niederschläge Wind Luftdruck Luftfeuchtigkeit
    00:00 +1°C° 0 mm 3 m/S 765 mmHg 76%
    01:00 +1°C° 0 mm 3 m/S 765 mmHg 75%
    02:00 +1°C° 0 mm 3 m/S 765 mmHg 74%
    03:00 +1°C° 0 mm 3 m/S 765 mmHg 73%
    04:00 +1°C° 0,1 mm 3 m/S 764 mmHg 72%
    05:00 +1°C° 0,1 mm 3 m/S 764 mmHg 72%
    06:00 +1°C° 0,1 mm 3 m/S 764 mmHg 72%
    07:00 +1°C° 0,2 mm 3 m/S 763 mmHg 71%
    08:00 +1°C° 0,2 mm 4 m/S 763 mmHg 71%
    09:00 +1°C° 0,2 mm 4 m/S 763 mmHg 71%
    10:00 +3°C° 0,1 mm 4 m/S 763 mmHg 71%
    11:00 +4°C° 0,1 mm 4 m/S 763 mmHg 71%
    12:00 +4°C° 0,1 mm 4 m/S 762 mmHg 71%
    13:00 +4°C° 0,2 mm 3 m/S 762 mmHg 74%
    14:00 +4°C° 0,2 mm 3 m/S 762 mmHg 76%
    15:00 +5°C° 0,2 mm 3 m/S 761 mmHg 78%
    16:00 +4°C° 0,3 mm 3 m/S 761 mmHg 81%
    17:00 +4°C° 0,3 mm 3 m/S 761 mmHg 83%
    18:00 +4°C° 0,3 mm 3 m/S 761 mmHg 86%
    19:00 +4°C° 0,2 mm 3 m/S 761 mmHg 87%
    20:00 +4°C° 0,2 mm 3 m/S 761 mmHg 88%
    21:00 +4°C° 0,2 mm 3 m/S 760 mmHg 89%
    22:00 +3°C° 0,1 mm 3 m/S 760 mmHg 89%
    23:00 +3°C° 0,1 mm 3 m/S 761 mmHg 89%

    Morgen, 20 Februar, Dienstag

    Zeit Temperatur Niederschläge Wind Luftdruck Luftfeuchtigkeit
    00:00 +3°C° 0,1 mm 3 m/S 761 mmHg 90%
    01:00 +3°C° 0,1 mm 3 m/S 761 mmHg 90%
    02:00 +4°C° 0,1 mm 2 m/S 760 mmHg 90%
    03:00 +4°C° 0,1 mm 2 m/S 760 mmHg 90%
    04:00 +4°C° 0,1 mm 2 m/S 760 mmHg 89%
    05:00 +3°C° 0,1 mm 2 m/S 760 mmHg 89%
    06:00 +3°C° 0,1 mm 2 m/S 760 mmHg 88%
    07:00 +2°C° 0,1 mm 3 m/S 761 mmHg 86%
    08:00 +3°C° 0,1 mm 3 m/S 761 mmHg 83%
    09:00 +3°C° 0,1 mm 3 m/S 761 mmHg 80%
    10:00 +4°C° 0 mm 3 m/S 762 mmHg 76%
    11:00 +4°C° 0 mm 3 m/S 762 mmHg 71%
    12:00 +5°C° 0 mm 3 m/S 762 mmHg 66%
    13:00 +5°C° 0 mm 4 m/S 762 mmHg 64%
    14:00 +5°C° 0 mm 4 m/S 762 mmHg 61%
    15:00 +6°C° 0 mm 5 m/S 763 mmHg 58%
    16:00 +5°C° 0 mm 5 m/S 763 mmHg 62%
    17:00 +3°C° 0 mm 5 m/S 764 mmHg 67%
    18:00 +3°C° 0 mm 4 m/S 765 mmHg 71%
    19:00 +1°C° 0 mm 4 m/S 766 mmHg 71%
    20:00 +1°C° 0 mm 5 m/S 766 mmHg 72%
    21:00 0°C° 0 mm 5 m/S 767 mmHg 72%
    22:00 0°C° 0 mm 4 m/S 767 mmHg 74%
    23:00 -1°C° 0 mm 4 m/S 768 mmHg 75%

    übermorgen, 21 Februar, Mittwoch

    Zeit Temperatur Niederschläge Wind Luftdruck Luftfeuchtigkeit
    00:00 -1°C° 0 mm 4 m/S 768 mmHg 76%
    01:00 -1°C° 0 mm 4 m/S 768 mmHg 78%
    02:00 -2°C° 0 mm 4 m/S 768 mmHg 79%
    03:00 -1°C° 0 mm 3 m/S 768 mmHg 81%
    04:00 -1°C° 0 mm 3 m/S 768 mmHg 81%
    05:00 -1°C° 0 mm 3 m/S 769 mmHg 82%
    06:00 -1°C° 0 mm 3 m/S 769 mmHg 82%
    07:00 -1°C° 0 mm 3 m/S 769 mmHg 78%
    08:00 -1°C° 0 mm 4 m/S 769 mmHg 73%
    09:00 0°C° 0 mm 4 m/S 769 mmHg 68%
    10:00 +1°C° 0 mm 4 m/S 769 mmHg 63%
    11:00 +3°C° 0 mm 4 m/S 769 mmHg 58%
    12:00 +5°C° 0 mm 4 m/S 768 mmHg 53%
    13:00 +5°C° 0 mm 4 m/S 768 mmHg 54%
    14:00 +5°C° 0 mm 4 m/S 768 mmHg 54%
    15:00 +5°C° 0 mm 5 m/S 767 mmHg 54%
    16:00 +4°C° 0 mm 4 m/S 767 mmHg 60%
    17:00 +3°C° 0 mm 4 m/S 767 mmHg 66%
    18:00 +2°C° 0 mm 3 m/S 767 mmHg 72%
    19:00 0°C° 0 mm 4 m/S 767 mmHg 73%
    20:00 0°C° 0 mm 4 m/S 767 mmHg 75%
    21:00 -1°C° 0 mm 4 m/S 767 mmHg 77%
    22:00 -1°C° 0 mm 4 m/S 767 mmHg 77%
    23:00 -1°C° 0 mm 4 m/S 767 mmHg 78%

    22 Februar, Donnerstag

    Zeit Temperatur Niederschläge Wind Luftdruck Luftfeuchtigkeit
    00:00 -2°C° 0 mm 4 m/S 767 mmHg 79%
    01:00 -2°C° 0 mm 4 m/S 767 mmHg 79%
    02:00 -2°C° 0 mm 4 m/S 767 mmHg 79%
    03:00 -3°C° 0 mm 4 m/S 766 mmHg 79%
    04:00 -3°C° 0 mm 4 m/S 766 mmHg 78%
    05:00 -3°C° 0 mm 4 m/S 766 mmHg 78%
    06:00 -3°C° 0 mm 4 m/S 766 mmHg 77%
    07:00 -2°C° 0 mm 5 m/S 766 mmHg 72%
    08:00 -1°C° 0 mm 5 m/S 766 mmHg 66%
    09:00 -1°C° 0 mm 6 m/S 766 mmHg 61%
    10:00 +1°C° 0 mm 6 m/S 766 mmHg 57%
    11:00 +2°C° 0 mm 6 m/S 766 mmHg 52%
    12:00 +3°C° 0 mm 7 m/S 766 mmHg 48%
    13:00 +3°C° 0 mm 7 m/S 765 mmHg 46%
    14:00 +3°C° 0 mm 7 m/S 765 mmHg 45%
    15:00 +3°C° 0 mm 7 m/S 765 mmHg 43%
    16:00 +2°C° 0 mm 7 m/S 765 mmHg 46%
    17:00 +1°C° 0 mm 6 m/S 765 mmHg 49%
    18:00 -2°C° 0 mm 6 m/S 766 mmHg 51%
    19:00 -2°C° 0 mm 6 m/S 766 mmHg 53%
    20:00 -2°C° 0 mm 6 m/S 766 mmHg 56%
    21:00 -3°C° 0 mm 6 m/S 766 mmHg 58%
    22:00 -3°C° 0 mm 6 m/S 766 mmHg 59%
    23:00 -3°C° 0 mm 6 m/S 766 mmHg 61%

    23 Februar, Freitag

    Zeit Temperatur Niederschläge Wind Luftdruck Luftfeuchtigkeit
    00:00 -2°C° 0 mm 5 m/S 766 mmHg 62%
    01:00 -4°C° 0 mm 5 m/S 766 mmHg 63%
    02:00 -4°C° 0 mm 5 m/S 766 mmHg 65%
    03:00 -4°C° 0 mm 5 m/S 765 mmHg 66%
    04:00 -4°C° 0 mm 5 m/S 765 mmHg 68%
    05:00 -4°C° 0 mm 5 m/S 765 mmHg 71%
    06:00 -4°C° 0 mm 5 m/S 765 mmHg 73%
    07:00 -3°C° 0 mm 6 m/S 766 mmHg 69%
    08:00 -3°C° 0 mm 7 m/S 766 mmHg 65%
    09:00 -2°C° 0 mm 7 m/S 766 mmHg 61%
    10:00 -1°C° 0 mm 7 m/S 766 mmHg 57%
    11:00 0°C° 0 mm 7 m/S 766 mmHg 54%
    12:00 0°C° 0 mm 7 m/S 766 mmHg 51%
    13:00 0°C° 0 mm 7 m/S 765 mmHg 51%
    14:00 0°C° 0 mm 7 m/S 765 mmHg 51%
    15:00 0°C° 0 mm 7 m/S 765 mmHg 51%
    16:00 -1°C° 0 mm 7 m/S 765 mmHg 54%
    17:00 -2°C° 0 mm 6 m/S 766 mmHg 56%
    18:00 -3°C° 0 mm 6 m/S 766 mmHg 58%
    19:00 -3°C° 0 mm 6 m/S 766 mmHg 58%
    20:00 -3°C° 0 mm 6 m/S 767 mmHg 57%
    21:00 -4°C° 0 mm 6 m/S 767 mmHg 56%
    22:00 -4°C° 0 mm 6 m/S 768 mmHg 57%
    23:00 -4°C° 0 mm 6 m/S 768 mmHg 58%

    24 Februar, Samstag

    Zeit Temperatur Niederschläge Wind Luftdruck Luftfeuchtigkeit
    00:00 -4°C° 0 mm 6 m/S 768 mmHg 59%
    01:00 -5°C° 0 mm 6 m/S 768 mmHg 59%
    02:00 -5°C° 0 mm 5 m/S 768 mmHg 58%
    03:00 -5°C° 0 mm 5 m/S 769 mmHg 58%
    04:00 -5°C° 0 mm 5 m/S 769 mmHg 57%
    05:00 -5°C° 0 mm 5 m/S 769 mmHg 57%
    06:00 -5°C° 0 mm 5 m/S 770 mmHg 56%
    07:00 -5°C° 0 mm 6 m/S 770 mmHg 53%
    08:00 -4°C° 0 mm 6 m/S 770 mmHg 49%
    09:00 -4°C° 0 mm 7 m/S 771 mmHg 46%
    10:00 -3°C° 0 mm 7 m/S 771 mmHg 44%
    11:00 -2°C° 0 mm 7 m/S 771 mmHg 41%
    12:00 -1°C° 0 mm 7 m/S 771 mmHg 39%
    13:00 -1°C° 0 mm 7 m/S 770 mmHg 38%
    14:00 -1°C° 0 mm 7 m/S 770 mmHg 38%
    15:00 -1°C° 0 mm 7 m/S 770 mmHg 37%
    16:00 -2°C° 0 mm 6 m/S 771 mmHg 38%
    17:00 -4°C° 0 mm 6 m/S 771 mmHg 39%
    18:00 -5°C° 0 mm 6 m/S 771 mmHg 40%
    19:00 -5°C° 0 mm 6 m/S 772 mmHg 40%
    20:00 -5°C° 0 mm 6 m/S 772 mmHg 40%
    21:00 -6°C° 0 mm 6 m/S 773 mmHg 40%
    22:00 -6°C° 0 mm 6 m/S 773 mmHg 41%
    23:00 -6°C° 0 mm 6 m/S 773 mmHg 42%
    Mehr zeigen